Tracking 23448 objects as of 23-Jun-2021
HD Live streaming from Space Station
objects crossing your sky now

COSMOS 1285 DEB

Track COSMOS 1285 DEB now!


NORAD ID: 25838
Int'l Code: 1981-071G
Perigee: 5,295.2 km
Apogee: 35,502.6 km
Inclination: 67.9 °
Period: 726.5 minutes
Semi major axis: 26769 km
RCS: 0.2959 m2 (medium)
Launch date: August 4, 1981
Source: Commonwealth of Independent States (former USSR) (CIS)
Launch site: PLESETSK MISSILE AND SPACE COMPLEX (PKMTR)

Note: This is SATELLITE DEBRIS
aabbcc
Your satellite tracking list
Your tracking list is empty




NASA's NSSDC Master Catalog

Two Line Element Set (TLE):
1 25838U 81071G   19037.06230227  .00000213  00000-0  10000-3 0  9995
2 25838  67.9026 256.2416 5642044  56.4302 345.3949  1.98213625148871
Source of the keplerian elements: AFSPC